CSC4182 ZUNZ-ZUCK

Flight info

Callsign CSC4182
Flight time N/A
Altitude 33100
Route ZUNZ UGPIT J554 ELNUN W9 CZH B213 VINEX ZUCK
Aircraft A320/M-SDE2E3GHIJ1J3J4J5LM1ORWXYZ/LB1D1

Departure

Time N/A
Airport Nyingchi Mainling Airport (ZUNZ)

Arrival

Time 2026-04-23 07:52
Airport Chongqing Jiangbei International Airport (ZUCK)
Time Latitude Longitude Altitude Speed Heading
2026-04-23 05:59 29.24613 93.55894 27136 ft 313 kts 347°
2026-04-23 05:59 29.26809 93.55530 27260 ft 324 kts 355°
2026-04-23 05:59 29.29097 93.55559 27384 ft 334 kts
2026-04-23 06:00 29.31412 93.56014 27515 ft 344 kts 12°
2026-04-23 06:00 29.33684 93.56910 27750 ft 355 kts 20°
2026-04-23 06:00 29.35883 93.58254 28056 ft 363 kts 26°
2026-04-23 06:00 29.38095 93.59735 28178 ft 372 kts 26°
2026-04-23 06:01 29.40368 93.61243 28315 ft 383 kts 26°
2026-04-23 06:01 29.42704 93.62785 28446 ft 392 kts 26°
2026-04-23 06:01 29.45090 93.64361 28581 ft 401 kts 26°
2026-04-23 06:01 29.47530 93.65975 28705 ft 409 kts 26°
2026-04-23 06:02 29.50018 93.67625 28864 ft 415 kts 26°
2026-04-23 06:02 29.52536 93.69299 29032 ft 421 kts 26°
2026-04-23 06:02 29.55081 93.70999 29357 ft 423 kts 26°
2026-04-23 06:02 29.57623 93.72703 29794 ft 423 kts 27°
2026-04-23 06:03 29.60154 93.74401 30278 ft 421 kts 26°
2026-04-23 06:03 29.62685 93.76095 30745 ft 419 kts 27°
2026-04-23 06:03 29.65196 93.77772 31169 ft 418 kts 27°
2026-04-23 06:03 29.67714 93.79453 31557 ft 418 kts 26°
2026-04-23 06:04 29.69380 93.80567 31797 ft 418 kts 27°
2026-04-23 06:04 29.71892 93.82246 32226 ft 417 kts 27°
2026-04-23 06:04 29.74392 93.83916 32662 ft 416 kts 26°
2026-04-23 06:04 29.76901 93.85593 33001 ft 417 kts 26°
2026-04-23 06:05 29.79412 93.87273 33089 ft 419 kts 26°
2026-04-23 06:05 29.84460 93.90684 33091 ft 423 kts 30°
2026-04-23 06:06 29.88708 93.95441 33101 ft 436 kts 51°
2026-04-23 06:06 29.90193 93.98529 33114 ft 444 kts 62°
2026-04-23 06:06 29.91131 94.01953 33112 ft 452 kts 71°
2026-04-23 06:07 29.92528 94.09026 33111 ft 452 kts 71°
2026-04-23 06:07 29.93910 94.16062 33114 ft 453 kts 71°
2026-04-23 06:08 29.95306 94.23139 33125 ft 453 kts 71°
2026-04-23 06:08 29.96699 94.30230 33115 ft 453 kts 71°
2026-04-23 06:09 29.98089 94.37333 33113 ft 454 kts 71°
2026-04-23 06:09 29.99476 94.44448 33121 ft 455 kts 71°
2026-04-23 06:10 30.00862 94.51569 33139 ft 454 kts 71°
2026-04-23 06:10 30.02243 94.58690 33142 ft 455 kts 71°
2026-04-23 06:11 30.03623 94.65824 33151 ft 456 kts 71°
2026-04-23 06:11 30.05000 94.72954 33119 ft 454 kts 71°
2026-04-23 06:12 30.06365 94.80021 33108 ft 454 kts 71°
2026-04-23 06:12 30.08572 94.91584 33136 ft 455 kts 71°
2026-04-23 06:13 30.09931 94.98715 33146 ft 454 kts 70°
2026-04-23 06:13 30.11331 95.05819 33155 ft 453 kts 70°
2026-04-23 06:14 30.12758 95.12899 33139 ft 451 kts 70°
2026-04-23 06:14 30.14168 95.19955 33156 ft 451 kts 70°
2026-04-23 06:15 30.15569 95.27031 33158 ft 452 kts 70°
2026-04-23 06:15 30.16963 95.34109 33201 ft 451 kts 70°
2026-04-23 06:16 30.18109 95.39978 33222 ft 451 kts 70°
2026-04-23 06:16 30.19487 95.47036 33204 ft 449 kts 70°
2026-04-23 06:17 30.20869 95.54088 33201 ft 450 kts 70°
2026-04-23 06:17 30.22250 95.61152 33202 ft 451 kts 70°
2026-04-23 06:18 30.23616 95.68216 33183 ft 450 kts 70°
2026-04-23 06:18 30.24987 95.75292 33187 ft 451 kts 70°
2026-04-23 06:19 30.26359 95.82391 33177 ft 452 kts 70°
2026-04-23 06:19 30.27718 95.89459 33132 ft 453 kts 70°
2026-04-23 06:20 30.29086 95.96604 33114 ft 456 kts 70°
2026-04-23 06:20 30.30462 96.03783 33119 ft 458 kts 70°
2026-04-23 06:21 30.31912 96.10946 33090 ft 457 kts 70°
2026-04-23 06:21 30.33390 96.18124 33088 ft 459 kts 70°
2026-04-23 06:22 30.34849 96.25338 33071 ft 461 kts 70°
2026-04-23 06:22 30.36302 96.32585 33048 ft 462 kts 70°
2026-04-23 06:23 30.37749 96.39844 33030 ft 462 kts 70°
2026-04-23 06:23 30.39186 96.47042 33078 ft 462 kts 70°
2026-04-23 06:24 30.40628 96.54296 33056 ft 463 kts 70°
2026-04-23 06:24 30.42068 96.61561 33059 ft 462 kts 70°
2026-04-23 06:25 30.43504 96.68820 33054 ft 462 kts 70°
2026-04-23 06:25 30.44931 96.76069 33059 ft 461 kts 70°
2026-04-23 06:26 30.46360 96.83325 33052 ft 461 kts 70°
2026-04-23 06:26 30.47782 96.90580 33068 ft 461 kts 71°
2026-04-23 06:27 30.49201 96.97846 33065 ft 461 kts 71°
2026-04-23 06:27 30.50608 97.05112 33049 ft 463 kts 71°
2026-04-23 06:28 30.51922 97.12377 33033 ft 467 kts 77°
2026-04-23 06:28 30.51844 97.19993 33013 ft 477 kts 91°
2026-04-23 06:29 30.51193 97.27673 33010 ft 478 kts 90°
2026-04-23 06:29 30.50548 97.35351 32985 ft 478 kts 90°
2026-04-23 06:30 30.49895 97.43043 33003 ft 480 kts 91°
2026-04-23 06:30 30.49235 97.50742 33011 ft 480 kts 90°
2026-04-23 06:31 30.48583 97.58443 33024 ft 480 kts 91°
2026-04-23 06:31 30.47919 97.66137 32999 ft 478 kts 91°
2026-04-23 06:32 30.47252 97.73765 32997 ft 479 kts 91°
2026-04-23 06:32 30.46581 97.81443 33002 ft 479 kts 91°
2026-04-23 06:33 30.45907 97.89132 33006 ft 479 kts 91°
2026-04-23 06:33 30.45219 97.96816 32998 ft 479 kts 91°
2026-04-23 06:34 30.44526 98.04487 33002 ft 479 kts 91°
2026-04-23 06:34 30.43843 98.12167 32989 ft 479 kts 91°
2026-04-23 06:35 30.43149 98.19852 32985 ft 480 kts 91°
2026-04-23 06:35 30.42510 98.27549 32985 ft 480 kts 90°
2026-04-23 06:36 30.41942 98.35247 33010 ft 480 kts 90°
2026-04-23 06:36 30.41361 98.42971 32999 ft 481 kts 90°
2026-04-23 06:37 30.40751 98.50697 32990 ft 482 kts 91°
2026-04-23 06:37 30.40131 98.58384 32991 ft 482 kts 91°
2026-04-23 06:38 30.39514 98.66125 32981 ft 482 kts 91°
2026-04-23 06:38 30.38894 98.73867 33000 ft 482 kts 91°
2026-04-23 06:39 30.38267 98.81593 32984 ft 481 kts 91°
2026-04-23 06:39 30.37634 98.89302 32988 ft 481 kts 91°
2026-04-23 06:40 30.37003 98.96957 32980 ft 481 kts 91°
2026-04-23 06:40 30.36359 99.04670 32979 ft 481 kts 91°
2026-04-23 06:41 30.35712 99.12377 33001 ft 481 kts 92°
2026-04-23 06:41 30.35062 99.20110 32975 ft 483 kts 92°
2026-04-23 06:42 30.34408 99.27850 32988 ft 482 kts 92°
2026-04-23 06:42 30.33747 99.35602 32996 ft 484 kts 92°
2026-04-23 06:43 30.33083 99.43364 33019 ft 484 kts 92°
2026-04-23 06:43 30.32417 99.51076 33043 ft 485 kts 92°
2026-04-23 06:44 30.31729 99.58847 33028 ft 485 kts 92°
2026-04-23 06:44 30.31042 99.66616 33024 ft 485 kts 92°
2026-04-23 06:45 30.30355 99.74386 33020 ft 485 kts 92°
2026-04-23 06:45 30.29670 99.82159 33032 ft 485 kts 92°
2026-04-23 06:46 30.28980 99.89921 33008 ft 485 kts 93°
2026-04-23 06:46 30.28268 99.97677 33014 ft 485 kts 93°
2026-04-23 06:47 30.27591 100.05433 32983 ft 484 kts 92°
2026-04-23 06:47 30.27037 100.13184 32948 ft 483 kts 91°
2026-04-23 06:48 30.26506 100.20934 32964 ft 483 kts 92°
2026-04-23 06:48 30.25932 100.28685 32940 ft 484 kts 92°
2026-04-23 06:49 30.25336 100.36433 32935 ft 483 kts 92°
2026-04-23 06:49 30.24732 100.44167 32903 ft 483 kts 92°
2026-04-23 06:50 30.24138 100.51914 32912 ft 483 kts 92°
2026-04-23 06:50 30.23539 100.59601 32898 ft 483 kts 93°
2026-04-23 06:51 30.22929 100.67340 32893 ft 484 kts 93°
2026-04-23 06:51 30.22318 100.75077 32870 ft 484 kts 93°
2026-04-23 06:52 30.21696 100.82834 32864 ft 484 kts 93°
2026-04-23 06:52 30.21067 100.90584 32858 ft 483 kts 93°
2026-04-23 06:53 30.20447 100.98316 32854 ft 484 kts 93°
2026-04-23 06:53 30.19817 101.06061 32871 ft 484 kts 93°
2026-04-23 06:54 30.19182 101.13807 32869 ft 483 kts 94°
2026-04-23 06:54 30.18541 101.21539 32871 ft 483 kts 93°
2026-04-23 06:55 30.17894 101.29270 32866 ft 483 kts 94°
2026-04-23 06:55 30.17239 101.37009 32884 ft 484 kts 94°
2026-04-23 06:56 30.16582 101.44700 32873 ft 484 kts 94°
2026-04-23 06:56 30.15921 101.52435 32887 ft 484 kts 94°
2026-04-23 06:57 30.15302 101.60175 32888 ft 484 kts 93°
2026-04-23 06:57 30.14754 101.67931 32931 ft 484 kts 90°
2026-04-23 06:58 30.15460 101.75582 32971 ft 477 kts 71°
2026-04-23 06:58 30.17799 101.82695 32946 ft 473 kts 63°
2026-04-23 06:59 30.20378 101.89690 32951 ft 474 kts 63°
2026-04-23 06:59 30.22953 101.96718 32954 ft 475 kts 63°
2026-04-23 07:00 30.25520 102.03743 32950 ft 474 kts 63°
2026-04-23 07:00 30.28072 102.10745 32968 ft 477 kts 63°
2026-04-23 07:01 30.30659 102.17820 32928 ft 478 kts 63°
2026-04-23 07:01 30.33252 102.24936 33010 ft 482 kts 63°
2026-04-23 07:02 30.35841 102.32082 32989 ft 481 kts 63°
2026-04-23 07:02 30.38428 102.39225 33031 ft 481 kts 63°
2026-04-23 07:03 30.41013 102.46372 33040 ft 480 kts 63°
2026-04-23 07:03 30.43589 102.53511 33060 ft 480 kts 63°
2026-04-23 07:04 30.46163 102.60659 33062 ft 480 kts 63°
2026-04-23 07:04 30.48295 102.66591 33077 ft 480 kts 64°
2026-04-23 07:05 30.51303 102.74945 33063 ft 480 kts 63°
2026-04-23 07:05 30.53442 102.80881 33049 ft 480 kts 63°
2026-04-23 07:06 30.56008 102.88045 33046 ft 481 kts 64°
2026-04-23 07:06 30.58567 102.95222 33039 ft 482 kts 63°
2026-04-23 07:07 30.61140 103.02431 33055 ft 484 kts 64°
2026-04-23 07:07 30.63658 103.09672 33066 ft 484 kts 64°
2026-04-23 07:08 30.66134 103.16957 33083 ft 485 kts 64°
2026-04-23 07:08 30.67970 103.24521 33048 ft 492 kts 81°
2026-04-23 07:09 30.67874 103.32490 33048 ft 496 kts 94°
2026-04-23 07:09 30.67153 103.40412 33027 ft 497 kts 95°
2026-04-23 07:10 30.66430 103.48390 33029 ft 497 kts 95°
2026-04-23 07:10 30.65704 103.56376 33007 ft 498 kts 95°
2026-04-23 07:11 30.64967 103.64381 32998 ft 498 kts 95°
2026-04-23 07:12 30.62437 103.76076 32984 ft 500 kts 108°
2026-04-23 07:12 30.60242 103.83743 32986 ft 500 kts 108°
2026-04-23 07:13 30.58151 103.91451 32987 ft 501 kts 102°
2026-04-23 07:13 30.57579 103.99456 32984 ft 497 kts 84°
2026-04-23 07:14 30.58078 104.07402 32984 ft 498 kts 84°
2026-04-23 07:14 30.58565 104.15410 32984 ft 498 kts 84°
2026-04-23 07:15 30.59035 104.23433 32998 ft 498 kts 84°
2026-04-23 07:15 30.59504 104.31468 32981 ft 500 kts 84°
2026-04-23 07:16 30.59976 104.39527 32980 ft 500 kts 84°
2026-04-23 07:16 30.60497 104.47584 32967 ft 500 kts 79°
2026-04-23 07:17 30.62167 104.55354 32982 ft 496 kts 70°
2026-04-23 07:17 30.64164 104.63026 32983 ft 496 kts 70°
2026-04-23 07:18 30.66142 104.70700 32982 ft 496 kts 70°
2026-04-23 07:18 30.68114 104.78383 33008 ft 496 kts 70°
2026-04-23 07:19 30.70087 104.86065 33003 ft 496 kts 70°
2026-04-23 07:19 30.72058 104.93738 33001 ft 496 kts 70°
2026-04-23 07:20 30.74029 105.01434 32983 ft 497 kts 70°
2026-04-23 07:20 30.75987 105.09088 32977 ft 498 kts 70°
2026-04-23 07:21 30.77956 105.16810 32978 ft 498 kts 70°
2026-04-23 07:21 30.79920 105.24548 32984 ft 499 kts 70°
2026-04-23 07:22 30.81872 105.32297 32987 ft 500 kts 70°
2026-04-23 07:22 30.83827 105.40063 32981 ft 500 kts 70°
2026-04-23 07:23 30.85694 105.47894 32990 ft 503 kts 72°
2026-04-23 07:23 30.87340 105.55803 33017 ft 502 kts 74°
2026-04-23 07:24 30.88928 105.63658 33014 ft 501 kts 73°
2026-04-23 07:24 30.90584 105.71565 32994 ft 501 kts 73°
2026-04-23 07:25 30.92273 105.79457 32993 ft 502 kts 73°
2026-04-23 07:25 30.93953 105.87359 32998 ft 503 kts 73°
2026-04-23 07:26 30.95581 105.95284 32995 ft 504 kts 77°
2026-04-23 07:26 30.95850 106.03449 32994 ft 508 kts 96°
2026-04-23 07:27 30.94289 106.11414 32988 ft 508 kts 106°
2026-04-23 07:27 30.92400 106.19352 32992 ft 509 kts 106°
2026-04-23 07:28 30.90524 106.27294 32995 ft 509 kts 106°
2026-04-23 07:28 30.88561 106.35216 33004 ft 509 kts 112°
2026-04-23 07:29 30.85246 106.42407 32996 ft 502 kts 130°
2026-04-23 07:29 30.80506 106.48260 33000 ft 496 kts 141°
2026-04-23 07:30 30.75479 106.53756 32996 ft 496 kts 142°
2026-04-23 07:30 30.70466 106.59190 32966 ft 496 kts 142°
2026-04-23 07:31 30.65407 106.64652 32989 ft 496 kts 142°
2026-04-23 07:31 30.60338 106.70103 32997 ft 496 kts 143°
2026-04-23 07:32 30.55256 106.75530 33006 ft 496 kts 143°
2026-04-23 07:32 30.50147 106.80946 33016 ft 497 kts 143°
2026-04-23 07:33 30.45035 106.86351 32879 ft 497 kts 143°
2026-04-23 07:33 30.42481 106.89055 32616 ft 497 kts 143°
2026-04-23 07:33 30.39935 106.91755 32336 ft 497 kts 143°
2026-04-23 07:33 30.37383 106.94461 32082 ft 497 kts 143°
2026-04-23 07:34 30.34860 106.97131 31768 ft 497 kts 143°
2026-04-23 07:34 30.32289 106.99844 30618 ft 505 kts 143°
2026-04-23 07:34 30.29672 107.02598 29772 ft 507 kts 143°
2026-04-23 07:34 30.27086 107.05325 29111 ft 501 kts 143°
2026-04-23 07:35 30.24514 107.08024 28396 ft 495 kts 145°
2026-04-23 07:35 30.21719 107.10209 27710 ft 477 kts 161°
2026-04-23 07:35 30.18653 107.11448 27076 ft 457 kts 176°
2026-04-23 07:35 30.15555 107.11755 26481 ft 439 kts 190°
2026-04-23 07:36 30.12598 107.11224 25901 ft 422 kts 203°
2026-04-23 07:36 30.09934 107.09983 25345 ft 406 kts 216°
2026-04-23 07:36 30.07616 107.08215 24810 ft 397 kts 222°
2026-04-23 07:36 30.05380 107.06360 24277 ft 394 kts 222°
2026-04-23 07:37 30.03185 107.04543 23765 ft 393 kts 221°
2026-04-23 07:37 30.00938 107.02683 23212 ft 392 kts 221°
2026-04-23 07:37 29.98753 107.00878 22712 ft 390 kts 221°
2026-04-23 07:37 29.96552 106.99063 22226 ft 388 kts 221°
2026-04-23 07:38 29.94361 106.97256 21752 ft 386 kts 221°
2026-04-23 07:38 29.92181 106.95458 21286 ft 384 kts 221°
2026-04-23 07:38 29.90012 106.93668 20791 ft 382 kts 221°
2026-04-23 07:38 29.87855 106.91887 20332 ft 380 kts 221°
2026-04-23 07:39 29.85712 106.90116 19836 ft 378 kts 220°
2026-04-23 07:39 29.83573 106.88348 19263 ft 379 kts 220°
2026-04-23 07:39 29.81449 106.86592 18644 ft 381 kts 220°
2026-04-23 07:39 29.79282 106.84803 17995 ft 384 kts 220°
2026-04-23 07:40 29.77054 106.82961 17312 ft 402 kts 219°
2026-04-23 07:40 29.74754 106.81067 16495 ft 408 kts 219°
2026-04-23 07:40 29.72429 106.79183 15701 ft 410 kts 216°
2026-04-23 07:40 29.69879 106.77740 14920 ft 408 kts 202°
2026-04-23 07:41 29.67182 106.76796 14169 ft 404 kts 199°
2026-04-23 07:41 29.64499 106.75879 13397 ft 400 kts 199°
2026-04-23 07:41 29.61852 106.74972 12575 ft 395 kts 199°
2026-04-23 07:41 29.59231 106.74068 11863 ft 393 kts 198°
2026-04-23 07:42 29.56616 106.73161 11185 ft 390 kts 198°
2026-04-23 07:42 29.54056 106.72268 10876 ft 377 kts 198°
2026-04-23 07:42 29.51593 106.71412 10640 ft 363 kts 198°
2026-04-23 07:42 29.49214 106.70591 10401 ft 352 kts 198°
2026-04-23 07:43 29.46892 106.69789 10162 ft 346 kts 197°
2026-04-23 07:43 29.44615 106.69002 9947 ft 336 kts 197°
2026-04-23 07:43 29.42423 106.68243 9826 ft 323 kts 197°
2026-04-23 07:43 29.40347 106.67525 9691 ft 300 kts 197°
2026-04-23 07:44 29.38527 106.66589 9559 ft 277 kts 218°
2026-04-23 07:44 29.37287 106.65036 9426 ft 256 kts 242°
2026-04-23 07:44 29.36728 106.63193 9208 ft 239 kts 264°
2026-04-23 07:44 29.36812 106.61330 8844 ft 230 kts 287°
2026-04-23 07:45 29.37278 106.59614 8536 ft 224 kts 288°
2026-04-23 07:45 29.37766 106.57921 8088 ft 223 kts 297°
2026-04-23 07:45 29.38742 106.56587 7645 ft 220 kts 328°
2026-04-23 07:45 29.40162 106.56013 7218 ft 217 kts 359°
2026-04-23 07:46 29.41620 106.56286 6870 ft 212 kts 18°
2026-04-23 07:46 29.43002 106.56762 6517 ft 210 kts 17°
2026-04-23 07:46 29.44408 106.57242 6160 ft 212 kts 19°
2026-04-23 07:46 29.45853 106.57739 5775 ft 220 kts 18°
2026-04-23 07:47 29.47329 106.58246 5448 ft 222 kts 18°
2026-04-23 07:47 29.48795 106.58750 5182 ft 217 kts 19°
2026-04-23 07:47 29.50215 106.59239 4965 ft 209 kts 18°
2026-04-23 07:47 29.51591 106.59712 4894 ft 204 kts 18°
2026-04-23 07:48 29.52958 106.60183 4900 ft 205 kts 18°
2026-04-23 07:48 29.54325 106.60654 4835 ft 205 kts 18°
2026-04-23 07:48 29.55692 106.61125 4643 ft 203 kts 17°
2026-04-23 07:48 29.57032 106.61586 4365 ft 199 kts 18°
2026-04-23 07:49 29.58345 106.62039 4116 ft 196 kts 19°
2026-04-23 07:49 29.59632 106.62483 3853 ft 188 kts 18°
2026-04-23 07:49 29.60852 106.62903 3607 ft 178 kts 18°
2026-04-23 07:49 29.62024 106.63307 3404 ft 174 kts 18°
2026-04-23 07:50 29.63178 106.63706 3157 ft 171 kts 18°
2026-04-23 07:50 29.64289 106.64088 2940 ft 160 kts 19°
2026-04-23 07:50 29.65313 106.64442 2757 ft 150 kts 18°
2026-04-23 07:50 29.66293 106.64780 2553 ft 145 kts 19°
2026-04-23 07:51 29.67261 106.65115 2373 ft 144 kts 20°
2026-04-23 07:51 29.68201 106.65440 2173 ft 143 kts 18°
2026-04-23 07:51 29.69178 106.65722 1994 ft 142 kts
2026-04-23 07:51 29.70151 106.65767 1701 ft 141 kts
2026-04-23 07:52 29.71099 106.66014 1457 ft 139 kts 18°
2026-04-23 07:52 29.72012 106.66354 1343 ft 129 kts 16°
2026-04-23 07:52 29.72710 106.66589 1345 ft 80 kts 16°
2026-04-23 07:52 29.73086 106.66718 1345 ft 36 kts 17°
2026-04-23 07:53 29.73257 106.66736 1343 ft 23 kts 355°
2026-04-23 07:53 29.73391 106.66713 1341 ft 9 kts 345°
2026-04-23 07:53 29.73442 106.66658 1341 ft 11 kts 322°
2026-04-23 07:53 29.73488 106.66630 1344 ft 12 kts 334°
2026-04-23 07:54 29.73566 106.66575 1343 ft 14 kts 329°
2026-04-23 07:54 29.73637 106.66489 1342 ft 16 kts 284°
2026-04-23 07:54 29.73670 106.66355 1342 ft 19 kts 287°
2026-04-23 07:54 29.73725 106.66148 1342 ft 22 kts 286°
2026-04-23 07:55 29.73749 106.66058 1341 ft 15 kts 287°
2026-04-23 07:55 29.73774 106.65963 1342 ft 12 kts 288°
2026-04-23 07:55 29.73803 106.65859 1341 ft 15 kts 288°
2026-04-23 07:55 29.73838 106.65738 1343 ft 17 kts 288°
2026-04-23 07:56 29.73850 106.65617 1341 ft 14 kts 241°
2026-04-23 07:56 29.73766 106.65553 1343 ft 16 kts 210°
2026-04-23 07:56 29.73665 106.65487 1347 ft 18 kts 207°
2026-04-23 07:56 29.73542 106.65436 1342 ft 20 kts 199°
2026-04-23 07:57 29.73402 106.65379 1346 ft 23 kts 199°
2026-04-23 07:57 29.73246 106.65316 1344 ft 25 kts 199°
2026-04-23 07:57 29.73074 106.65249 1342 ft 26 kts 197°
2026-04-23 07:57 29.72907 106.65196 1343 ft 26 kts 194°
2026-04-23 07:58 29.72730 106.65143 1344 ft 28 kts 194°
2026-04-23 07:58 29.72551 106.65085 1342 ft 25 kts 196°
2026-04-23 07:58 29.72384 106.65026 1343 ft 26 kts 197°
2026-04-23 07:58 29.72212 106.64966 1342 ft 23 kts 197°
2026-04-23 07:59 29.72054 106.64911 1344 ft 25 kts 197°
2026-04-23 07:59 29.71882 106.64850 1342 ft 27 kts 197°
2026-04-23 07:59 29.71702 106.64787 1344 ft 23 kts 197°
2026-04-23 07:59 29.71568 106.64741 1343 ft 21 kts 197°
2026-04-23 08:00 29.71450 106.64700 1340 ft 12 kts 197°
2026-04-23 08:00 29.71390 106.64683 1341 ft 9 kts 179°
2026-04-23 08:00 29.71352 106.64746 1342 ft 11 kts 112°
2026-04-23 08:00 29.71290 106.64767 1341 ft 12 kts 218°
2026-04-23 08:01 29.71217 106.64701 1340 ft 14 kts 219°
2026-04-23 08:01 29.71166 106.64645 1341 ft 9 kts 232°
2026-04-23 08:01 29.71128 106.64598 1341 ft 7 kts 198°
2026-04-23 08:01 29.71091 106.64607 1342 ft 5 kts 123°
2026-04-23 08:02 29.71074 106.64651 1340 ft 7 kts 109°
2026-04-23 08:02 29.71068 106.64665 1342 ft 0 kts 119°